MDT,Max TemperatureF,Mean TemperatureF,Min TemperatureF,Max Dew PointF,MeanDew PointF,Min DewpointF,Max Humidity, Mean Humidity, Min Humidity, Max Sea Level PressureIn, Mean Sea Level PressureIn, Min Sea Level PressureIn, Max VisibilityMiles, Mean VisibilityMiles, Min VisibilityMiles, Max Wind SpeedMPH, Mean Wind SpeedMPH, Max Gust SpeedMPH,PrecipitationIn, CloudCover, Events, WindDirDegrees
2011-10-1,88,63,38,41,37,31,85,49,13,30.15,30.02,29.95,10,10,10,13,5,15,0.00,0,,103
2011-10-2,90,67,43,42,38,34,82,48,14,30.11,29.98,29.89,10,10,10,17,5,22,0.00,0,,133
2011-10-3,90,69,47,46,41,35,71,43,15,30.11,29.97,29.90,10,10,9,13,5,17,0.00,0,,349
2011-10-4,88,65,41,45,39,28,82,49,16,30.01,29.82,29.68,10,10,10,23,7,30,0.00,0,,150
2011-10-5,82,67,51,45,41,35,52,38,23,29.82,29.62,29.46,10,10,10,28,13,35,0.00,1,,137
2011-10-6,82,67,51,54,42,23,86,51,15,29.56,29.41,29.20,10,9,2,43,16,60,T,2,,166
2011-10-7,70,56,41,28,19,6,55,32,8,29.90,29.73,29.59,10,10,10,30,14,39,0.00,0,,258
2011-10-8,49,47,44,46,39,28,93,73,53,30.14,29.98,29.90,10,6,2,38,17,47,1.05,8,Rain,3
2011-10-9,46,44,41,46,44,41,100,93,86,30.17,30.12,30.01,10,8,3,15,7,22,0.29,8,Rain,309
2011-10-10,68,54,39,40,36,31,100,63,26,30.00,29.89,29.79,10,10,7,24,8,33,0.00,2,,181
2011-10-11,70,54,38,46,39,34,92,60,28,29.83,29.76,29.67,10,10,10,25,8,31,T,2,,301
2011-10-12,64,49,34,43,34,26,89,57,25,30.07,29.98,29.79,10,10,10,29,10,36,T,2,,319
2011-10-13,69,49,28,35,30,25,92,55,18,30.06,30.00,29.91,10,10,10,20,6,25,0.00,1,,342
2011-10-14,62,52,41,37,32,26,76,53,29,30.13,30.05,29.98,10,10,10,23,5,25,0.00,2,,102
2011-10-15,84,58,32,39,35,30,85,51,17,29.99,29.91,29.75,10,5,1,24,6,33,0.00,0,,311
2011-10-16,60,47,34,38,33,25,92,61,30,30.16,30.05,29.93,,,,22,7,28,0.02,1,Rain,114
2011-10-17,50,43,36,45,36,31,100,78,56,30.28,30.12,29.83,10,10,7,21,10,28,0.11,5,Rain,336
2011-10-18,59,45,30,34,28,21,92,58,24,30.38,30.30,30.25,10,10,10,30,11,39,0.00,3,,314
2011-10-19,59,43,26,31,26,23,85,55,25,30.29,30.14,29.99,10,10,10,12,6,15,0.00,0,,31
2011-10-20,71,51,31,34,30,27,82,52,22,30.06,30.00,29.93,10,10,10,17,7,22,0.00,0,,342
2011-10-21,67,50,32,38,33,30,89,58,26,30.16,30.10,30.04,10,10,10,13,5,18,T,1,,325
2011-10-22,70,54,38,43,37,31,92,58,23,30.12,30.07,30.00,10,10,10,22,6,28,T,2,,6
2011-10-23,74,54,33,36,32,28,89,54,19,30.13,30.04,29.95,10,10,10,20,7,25,0.00,0,,307
2011-10-24,76,54,31,38,33,30,89,54,19,30.01,29.89,29.73,10,10,10,14,3,16,0.00,0,,37
2011-10-25,52,45,38,36,31,22,70,55,40,30.24,30.06,29.78,10,10,10,22,10,28,T,6,Rain,330
2011-10-26,41,31,21,34,28,19,96,78,59,30.33,30.27,30.23,10,9,2,10,3,13,0.01,6,Rain-Snow,271
2011-10-27,52,34,15,26,17,10,88,54,19,30.24,30.18,30.06,10,10,10,15,5,20,0.00,0,,328
2011-10-28,55,38,20,23,19,17,88,55,22,30.37,30.24,30.05,10,10,8,10,5,13,0.00,0,,291
2011-10-29,66,48,29,30,21,13,69,42,14,30.11,29.95,29.81,10,10,10,33,12,40,0.00,2,,306
2011-10-30,60,44,28,30,26,23,92,58,24,30.21,30.14,30.06,10,10,10,16,6,22,0.00,1,,310
2011-10-31,72,49,26,32,27,21,81,50,18,30.05,29.92,29.81,10,10,10,29,10,37,0.00,0,,297